Flag for U.S.A. Weather past 2 weeks in Sacramento, California, U.S.A.

Now
54 °F

Passing clouds.


Feels Like: 52 °F
Forecast: 52 / 84 °F
Wind: 8 mph from Southwest

Location: Sacramento Executive Airport

Current Time: May 27, 2015 at 7:04:26 AM

Latest Report: May 27, 2015 at 5:53 AM


Visibility: 10 mi

Pressure: 29.95 "Hg

Humidity: 86%

Dew point: 50 °F

Location of SacramentoLocation

Historic Weather in Sacramento — Graph

°F

Sacramento temperature yesterday

Maximum temperature yesterday: 77 °F (at 2:53 PM)
Minimum temperature yesterday: 53 °F (at 4:53 AM)
Average temperature yesterday: 62 °F

Past Weeks' High & Low Weather Summary

 TemperatureHumidityPressure
High80 °F (May 24, 1:53 PM)89% (May 15, 5:53 AM)30.08 "Hg (May 15, 5:53 AM)
Low50 °F (May 12, 5:53 AM)29% (May 12, 2:53 PM)29.73 "Hg (May 14, 4:53 PM)
Average62 °F65%29.93 "Hg
* Reported May 12 5:53 AM — May 27 5:53 AM, Sacramento, Weather by CustomWeather, © 2015

Note: Actual official high and low records may vary slightly from our data, if they occured in-between our weather recording intervals... More about our weather records

Advertising

Sacramento weather history for previous 24 hours

 ConditionsComfort  
Time TempWeatherWind HumidityBarometerVisibility
5:53 AM
Wed, May 27
54 °FPassing clouds.8 mph86%29.95 "Hg10 mi
4:53 AM54 °FPassing clouds.10 mph86%29.94 "Hg10 mi
3:53 AM54 °FClear.8 mph86%29.94 "Hg10 mi
2:53 AM55 °FPassing clouds.9 mph83%29.95 "Hg10 mi
1:53 AM55 °FClear.6 mph83%29.94 "Hg10 mi
12:53 AM56 °FClear.8 mph81%29.95 "Hg10 mi
11:53 PM
Tue, May 26
56 °FClear.10 mph81%29.94 "Hg10 mi
10:53 PM56 °FClear.8 mph81%29.94 "Hg10 mi
9:53 PM57 °FClear.9 mph78%29.93 "Hg10 mi
8:53 PM60 °FSunny.12 mph69%29.91 "Hg10 mi
7:53 PM65 °FSunny.10 mph61%29.89 "Hg10 mi
6:53 PM69 °FSunny.14 mph51%29.88 "Hg10 mi
5:53 PM73 °FSunny.13 mph46%29.88 "Hg10 mi
4:53 PM76 °FSunny.9 mph43%29.89 "Hg10 mi
3:53 PM76 °FSunny.9 mph39%29.90 "Hg10 mi
2:53 PM77 °FSunny.9 mph40%29.91 "Hg10 mi
1:53 PM74 °FSunny.9 mph46%29.93 "Hg10 mi
12:53 PM71 °FSunny.8 mph53%29.95 "Hg10 mi
11:53 AM69 °FSunny.8 mph53%29.96 "Hg10 mi
10:53 AM65 °FSunny.13 mph61%29.97 "Hg10 mi
9:53 AM62 °FSunny.9 mph67%29.97 "Hg10 mi
8:53 AM60 °FSunny.10 mph69%29.97 "Hg10 mi
7:53 AM57 °FSunny.8 mph78%29.96 "Hg10 mi
Weather by CustomWeather, © 2015

See weather overviewHow to use our weather pages